This is the latest recevied weather packets stored in our database for station/object M0TUM-1. If no packets are shown the sender has not sent any weather packets the latest 10 day(s).
| Time | Temp. | Humidity | Pressure | Rain* | Wind** | Luminosity | Snow |
|---|---|---|---|---|---|---|---|
| 1778153058 | 12.22° C | 64% | 1017.2 hPa | 0 mm | - | 346 W/m² | - |
| 1778152755 | 12.78° C | 63% | 1017.1 hPa | 0 mm | - | 425 W/m² | - |
| 1778152453 | 12.78° C | 65% | 1017.3 hPa | 0 mm | - | 325 W/m² | - |
| 1778152148 | 12.22° C | 66% | 1017.3 hPa | 0 mm | - | 345 W/m² | - |
| 1778151845 | 12.22° C | 66% | 1017.2 hPa | 0 mm | - | 279 W/m² | - |
| 1778151542 | 11.67° C | 67% | 1017.3 hPa | 0 mm | - | 221 W/m² | - |
| 1778151238 | 11.67° C | 67% | 1017.2 hPa | 0 mm | - | 235 W/m² | - |
| 1778150935 | 11.67° C | 66% | 1017.3 hPa | 0 mm | - | 264 W/m² | - |
| 1778150632 | 11.67° C | 66% | 1017.4 hPa | 0 mm | - | 233 W/m² | - |
| 1778150327 | 11.67° C | 67% | 1017.3 hPa | 0 mm | - | 206 W/m² | - |
| 1778150024 | 11.67° C | 67% | 1017.4 hPa | 0 mm | - | 198 W/m² | - |
| 1778148209 | 11.11° C | 67% | 1017.3 hPa | 0 mm | - | 231 W/m² | - |
| 1778147907 | 11.11° C | 67% | 1017.3 hPa | 0 mm | - | 231 W/m² | - |
| 1778147603 | 11.11° C | 67% | 1017.3 hPa | 0 mm | - | 231 W/m² | - |
| 1778147301 | 11.67° C | 66% | 1017.3 hPa | 0 mm | - | 212 W/m² | - |
| 1778146997 | 11.67° C | 65% | 1017.1 hPa | 0 mm | - | 225 W/m² | - |
| 1778146694 | 11.67° C | 64% | 1017.1 hPa | 0 mm | - | 209 W/m² | - |
| 1778146393 | 11.67° C | 64% | 1017 hPa | 0 mm | - | 235 W/m² | - |
| 1778146090 | 11.67° C | 64% | 1017.2 hPa | 0 mm | - | 288 W/m² | - |
| 1778145787 | 11.67° C | 63% | 1017.1 hPa | 0 mm | - | 273 W/m² | - |
| 1778145483 | 11.11° C | 64% | 1017.1 hPa | 0 mm | - | 273 W/m² | - |
| 1778145180 | 11.11° C | 64% | 1017.2 hPa | 0 mm | - | 355 W/m² | - |
| 1778144880 | 11.11° C | 64% | 1017.2 hPa | 0 mm | - | 299 W/m² | - |
| 1778144577 | 11.11° C | 64% | 1017 hPa | 0 mm | - | 219 W/m² | - |
| 1778144274 | 11.67° C | 64% | 1017.2 hPa | 0 mm | - | 208 W/m² | - |
* Rain latest hour (hover to see other rain measurements)
** Current wind speed in m/s (hover to see current wind gust speed)